Location: Calvatone
(45.1167°N, 10.4333°E)
Time: 20:09:29
(UTC+00:00)

Envisat - Pass Details

Date: 14 June 2023
Orbit: 763 x 764 km, 98.2° (Epoch: 02 October)

Event Time Altitude Azimuth Distance (km) Brightness Sun altitude
Rises 02:14:08 0° 25° (NNE) 3,238 7.9 -10.8°
Reaches altitude 10° 02:16:51 10° 38° (NE) 2,308 7.1 -10.5°
Maximum altitude 02:21:00 25° 93° (E) 1,506 5.0 -10.0°
Drops below altitude 10° 02:25:09 10° 149° (SSE) 2,294 5.3 -9.5°
Sets 02:27:49 0° 162° (SSE) 3,216 5.9 -9.2°
